This is the latest recevied weather packets stored in our database for station/object OK2ZAW-23. If no packets are shown the sender has not sent any weather packets the latest 10 day(s).
| Time | Temp. | Humidity | Pressure | Rain* | Wind** | Luminosity | Snow |
|---|---|---|---|---|---|---|---|
| 1777511456 | -1.67° C | 56% | 1026.8 hPa | - | - | 335 W/m² | - |
| 1777511144 | -1.67° C | 57% | 1026.8 hPa | - | - | 335 W/m² | - |
| 1777510831 | -1.67° C | 59% | 1026.8 hPa | - | - | 335 W/m² | - |
| 1777509581 | -1.67° C | 55% | 1026.7 hPa | - | - | 335 W/m² | - |
| 1777509268 | -1.67° C | 52% | 1026.6 hPa | - | - | 335 W/m² | - |
| 1777508955 | -1.11° C | 53% | 1026.7 hPa | - | - | 335 W/m² | - |
| 1777508642 | -1.11° C | 55% | 1026.6 hPa | - | - | 335 W/m² | - |
| 1777508330 | -1.11° C | 54% | 1026.7 hPa | - | - | 335 W/m² | - |
| 1777508017 | -1.11° C | 52% | 1026.7 hPa | - | - | 335 W/m² | - |
| 1777507079 | -0.56° C | 49% | 1026.5 hPa | - | - | 335 W/m² | - |
| 1777506455 | 0° C | 51% | 1026.4 hPa | - | - | 335 W/m² | - |
| 1777506141 | 0° C | 50% | 1026.4 hPa | - | - | 335 W/m² | - |
| 1777505517 | 0° C | 51% | 1026.5 hPa | - | - | 335 W/m² | - |
| 1777504265 | 0° C | 47% | 1026.5 hPa | - | - | 335 W/m² | - |
| 1777503953 | 0° C | 51% | 1026.5 hPa | - | - | 335 W/m² | - |
| 1777503640 | 0.56° C | 44% | 1026.4 hPa | - | - | 335 W/m² | - |
| 1777503327 | 0.56° C | 44% | 1026.4 hPa | - | - | 335 W/m² | - |
| 1777503015 | 0.56° C | 44% | 1026.4 hPa | - | - | 335 W/m² | - |
| 1777502389 | 0.56° C | 43% | 1026.3 hPa | - | - | 335 W/m² | - |
| 1777502077 | 0.56° C | 43% | 1026.3 hPa | - | - | 335 W/m² | - |
| 1777501765 | 1.11° C | 43% | 1026.2 hPa | - | - | 335 W/m² | - |
| 1777500826 | 1.11° C | 43% | 1026.1 hPa | - | - | 335 W/m² | - |
| 1777500513 | 1.11° C | 42% | 1026.1 hPa | - | - | 335 W/m² | - |
| 1777500200 | 1.11° C | 42% | 1026.2 hPa | - | - | 335 W/m² | - |
| 1777499888 | 1.11° C | 43% | 1026.1 hPa | - | - | 335 W/m² | - |
* Rain since midnight (hover to see other rain measurements)
** Current wind speed in m/s (hover to see current wind gust speed)